EHI
4 4 3 1 0 0 0 0 0 0 0 0 0 0 1 1 1 0 1 5 9 9 4 3 4 4 2 1 0 0 0 0 0 1 2 2 1 0 0 0 0 0 0 1 3 2 1 0 0
2 3 2 1 0 0 0 0 0 0 0 0 0 0 1 1 0 0 2 6 9 7 3 3 4 3 1 0 0 0 0 0 0 0 1 1 0 0 0 0 0 0 0 0 1 1 0 0 0
2 1 1 0 0 0 0 0 0 0 0 0 0 1 2 2 1 0 2 5 6 4 3 3 3 2 0 0 0 0 0 0 0 0 0 0 0 0 0 0 0 0 0 0 0 0 0 0 0
1 1 0 0 0 0 0 0 0 0 0 0 0 1 2 2 1 0 1 3 3 3 3 4 3 1 0 0 0 0 0 0 0 0 0 0 0 0 0 0 0 0 0 0 0 0 0 0 0
2 1 0 0 0 0 0 0 0 0 0 0 0 2 2 1 0 0 1 3 3 3 3 3 3 1 0 0 0 0 0 0 0 0 0 0 0 0 0 0 0 0 0 0 0 0 0 0 0
3 2 1 0 0 0 0 0 0 0 0 0 0 1 1 1 1 1 2 2 2 2 1 1 1 1 0 0 0 0 0 0 0 0 0 0 0 0 0 0 0 0 0 0 0 0 0 0 0
4 3 1 0 0 0 0 0 0 0 0 0 0 0 0 1 2 2 2 1 1 1 0 0 0 0 0 0 0 0 0 0 0 0 0 0 0 0 0 0 0 0 0 0 0 0 0 0 1
3 2 1 0 0 1 1 0 0 0 1 1 1 1 1 1 2 1 1 0 0 0 0 0 0 0 0 0 0 0 0 0 0 0 0 0 0 0 0 0 0 0 0 0 0 0 0 0 1
1 1 0 0 0 1 1 0 0 0 1 3 3 3 2 2 1 0 0 0 0 0 0 0 0 0 0 0 0 0 0 0 0 0 0 0 0 0 0 0 0 0 0 0 0 0 0 0 1
0 0 0 0 0 1 1 0 0 0 1 2 3 3 2 1 0 0 0 0 0 0 0 0 0 0 0 0 0 0 0 0 0 0 0 0 0 0 0 0 0 0 0 0 0 0 0 0 0
0 0 0 0 0 0 0 0 0 0 0 1 2 2 1 0 0 0 0 0 0 0 0 0 0 0 0 0 0 0 0 0 0 0 0 0 0 0 0 0 0 0 0 0 0 0 0 0 0
0 0 0 0 0 0 0 0 0 1 0 0 1 1 0 0 0 0 0 0 0 0 0 0 0 0 0 0 0 0 0 0 0 0 0 0 0 0 0 0 0 0 0 0 0 0 0 0 0
0 0 0 0 0 0 0 0 0 0 0 1 1 1 0 0 0 0 0 0 0 0 0 0 0 0 0 0 0 0 0 0 0 0 0 0 0 0 0 0 0 0 0 0 0 0 0 0 0
0 0 0 0 0 0 0 0 0 0 1 2 2 1 0 0 0 0 0 0 0 0 0 0 0 0 0 0 0 0 0 0 0 0 0 0 0 0 0 0 0 0 0 0 0 0 0 0 0
0 0 0 0 0 0 0 0 0 0 1 1 1 0 0 0 0 0 0 0 0 0 0 0 0 0 0 0 0 0 0 0 0 0 0 0 0 0 0 0 0 0 0 0 0 0 0 0 0
0 0 0 0 0 0 0 0 0 0 0 0 0 0 0 0 0 0 0 0 0 0 0 0 0 0 0 0 0 0 0 0 0 0 0 0 0 0 0 0 0 0 0 0 0 0 0 0 0
0 0 0 0 0 0 0 0 0 0 0 0 0 0 0 0 0 0 0 0 0 0 0 0 0 0 0 1 1 1 0 0 0 0 0 0 0 0 0 0 0 0 0 0 0 0 0 0 0
0 0 0 0 0 0 0 0 0 0 0 0 0 0 0 0 0 0 0 0 0 0 0 0 0 1 1 1 2 2 1 0 0 0 0 0 0 0 0 0 0 0 0 0 0 0 0 0 0
0 0 0 0 0 0 0 0 0 0 0 0 0 0 0 0 0 0 0 0 0 0 0 0 0 1 2 2 2 2 1 0 0 0 0 0 0 0 0 0 0 0 0 0 0 0 0 0 0
0 0 0 0 0 0 0 0 0 0 0 0 0 0 0 0 0 0 0 0 0 0 0 0 0 1 1 1 1 1 1 0 0 0 0 0 0 0 0 0 0 0 0 0 0 0 0 0 0
0 0 0 0 0 0 0 0 0 0 0 0 0 0 0 0 0 0 0 0 0 0 0 0 0 0 0 0 0 0 0 0 0 0 0 0 0 0 0 0 0 0 0 0 0 0 0 0 0
0 0 0 0 0 0 0 0 0 0 0 0 0 0 0 0 0 0 0 0 0 0 0 0 0 0 0 0 0 0 0 0 0 0 0 0 0 0 0 0 0 0 0 0 0 0 0 0 0
0 0 0 0 0 0 0 0 0 0 0 0 0 0 0 0 0 0 0 0 0 0 0 0 0 0 0 0 0 0 0 0 0 0 0 0 0 0 0 0 0 0 0 0 0 0 0 0 0
0 0 0 0 0 0 0 0 0 0 0 0 0 0 1 1 1 0 0 1 1 0 0 0 0 0 0 0 0 0 0 0 0 0 0 0 0 0 0 0 0 0 0 0 0 0 0 0 0
0 0 0 0 0 0 0 0 0 0 0 0 0 0 1 2 1 0 1 2 2 1 1 1 1 0 0 0 0 0 0 0 0 0 0 0 0 0 0 0 0 0 0 0 0 0 0 0 0
0 0 0 0 0 0 0 0 0 0 0 0 0 0 1 1 1 0 1 3 3 1 1 1 1 0 0 0 0 0 0 0 0 0 0 0 0 0 0 0 0 0 0 0 0 0 0 0 0
0 0 0 0 0 0 0 0 0 0 0 0 0 0 0 0 0 1 2 4 5 3 1 1 0 0 0 0 0 0 0 0 0 0 0 0 0 0 0 0 0 0 0 0 0 0 0 0 0
0 0 0 0 0 0 0 0 0 0 0 0 0 0 0 0 0 1 2 4 5 4 2 1 0 0 0 0 0 0 0 0 0 0 0 0 0 0 0 0 0 0 0 0 0 0 0 0 0
0 0 0 0 0 0 0 0 0 0 0 0 0 0 0 0 0 0 1 3 4 4 3 1 0 0 0 0 0 0 0 0 0 0 0 0 0 0 0 0 0 0 0 0 0 0 0 0 0
0 0 0 0 0 0 0 0 0 0 0 0 0 0 0 0 0 0 1 2 3 3 2 1 0 0 0 0 0 0 0 0 0 0 0 0 0 0 0 0 0 0 0 0 0 0 0 0 0
Wind_Speed
5 6 4 2 2 3 1 3 5 4 5 5 5 5 9 10 8 7 3 6 13 13 12 11 12 12 11 11 11 11 10 10 9 8 8 7 7 6 6 6 6 6 6 5 6 6 6 6 5
5 4 3 2 2 1 2 4 6 5 4 3 5 8 11 10 10 9 4 8 12 13 11 11 12 11 11 11 11 11 10 10 9 8 8 7 7 6 5 5 5 5 5 5 5 5 6 6 5
8 5 3 3 3 1 4 5 5 6 4 4 6 9 9 7 9 7 7 9 12 13 12 12 12 12 11 11 11 10 10 9 9 8 8 7 6 6 6 5 5 4 4 5 5 5 5 5 5
4 3 4 4 3 1 5 5 4 5 5 4 6 8 9 7 7 9 9 11 13 13 12 11 12 12 11 11 10 10 9 9 8 8 7 7 6 6 5 5 5 5 4 4 5 5 5 5 5
2 3 4 4 1 3 5 6 4 4 4 6 8 10 9 9 11 10 9 11 12 12 12 11 12 11 11 10 10 9 8 8 7 7 6 6 5 5 4 4 4 5 5 4 4 4 4 5 4
2 3 4 2 1 4 5 5 5 5 6 6 8 10 8 8 9 9 9 9 11 11 11 11 12 12 11 10 9 8 7 6 6 5 4 4 3 3 3 3 4 4 4 4 4 4 4 4 4
3 3 4 2 1 3 5 4 5 4 6 5 5 9 9 9 8 9 9 9 9 10 10 9 9 10 10 10 9 7 6 5 4 3 1 0 1 1 0 1 2 3 3 4 4 4 4 4 4
3 4 5 1 1 3 5 4 5 5 6 5 5 8 10 11 9 9 9 8 7 7 7 8 8 8 8 7 8 7 6 5 4 3 4 4 5 5 4 3 2 1 2 3 4 4 4 5 6
4 3 3 3 2 3 4 4 4 4 6 8 11 13 14 14 12 10 8 6 6 6 5 6 6 6 6 7 8 7 7 6 5 5 7 6 4 3 4 4 4 2 3 4 4 6 6 7 8
3 2 2 2 2 3 3 3 2 3 7 8 12 14 14 12 11 9 8 8 7 5 5 4 4 4 4 4 5 4 4 4 4 2 3 2 1 1 1 4 5 5 6 7 7 9 8 7 4
4 3 1 2 3 3 3 2 2 4 5 7 10 13 12 11 9 8 7 8 6 5 4 4 3 3 2 2 2 1 1 2 1 2 1 1 1 1 1 1 2 3 5 3 4 5 4 3 2
4 2 0 1 2 1 2 2 4 5 4 6 10 12 11 10 8 7 7 7 7 6 4 4 3 3 2 3 1 1 1 1 1 2 3 2 1 2 2 1 1 1 1 1 1 2 3 3 2
5 3 2 2 1 1 2 2 3 4 6 9 11 11 11 10 8 7 7 8 7 7 4 3 2 2 3 2 0 2 2 2 2 2 3 2 1 2 2 1 1 2 2 1 1 2 2 2 3
3 2 2 3 3 2 2 2 2 3 6 8 10 9 9 8 8 8 7 7 7 7 5 3 2 2 2 2 1 2 2 1 2 2 3 2 2 2 2 2 2 2 2 2 2 2 2 2 1
3 4 4 4 4 3 3 3 4 6 7 8 8 8 8 8 7 7 7 6 7 7 6 4 2 2 2 3 3 2 1 2 2 2 3 3 2 2 3 2 2 2 2 3 3 3 2 2 1
6 5 3 4 5 3 3 2 6 8 7 7 8 7 7 7 7 6 6 5 6 6 7 5 3 2 3 4 2 2 2 3 2 2 2 4 4 4 3 2 2 2 2 2 2 2 2 2 2
6 6 6 5 6 5 4 3 6 7 8 7 8 8 7 7 7 6 5 5 5 5 6 6 5 3 4 3 1 2 3 2 2 2 3 4 5 4 3 2 2 3 2 2 3 2 2 2 2
6 6 5 5 6 6 5 4 6 8 9 8 8 8 9 9 8 7 6 5 4 5 5 5 5 4 4 2 1 2 3 2 2 2 3 3 3 4 3 2 3 3 2 3 3 3 2 1 2
3 2 3 4 5 6 6 6 6 7 7 7 8 8 8 9 9 8 6 6 5 4 4 5 5 4 4 2 1 2 1 1 1 2 3 2 3 4 3 2 2 2 2 3 3 2 3 2 1
3 3 3 5 5 4 4 5 6 7 8 7 7 6 7 7 9 8 7 6 5 5 4 5 5 5 4 2 1 1 1 1 1 1 2 2 3 4 4 3 2 2 1 2 3 2 2 2 2
3 3 3 5 5 5 4 4 5 7 6 6 5 5 6 7 9 8 7 6 5 5 4 4 4 5 5 3 2 2 1 1 1 0 1 1 1 1 2 4 3 3 2 1 2 2 1 2 2
1 3 4 5 4 3 5 2 4 7 6 5 5 5 5 6 8 8 6 6 6 5 5 5 5 5 5 4 2 1 1 0 0 0 1 0 1 0 1 2 3 3 2 2 2 2 1 1 2
1 2 3 5 4 3 6 4 3 6 6 6 6 6 6 6 7 8 6 5 6 6 5 4 4 4 4 3 3 1 0 0 1 1 1 1 0 0 0 1 2 2 1 1 2 2 2 1 1
2 3 4 3 2 2 5 4 3 3 5 6 6 6 6 6 7 7 6 5 5 5 5 4 4 4 4 3 3 3 2 1 0 0 1 2 1 0 0 0 1 2 2 1 2 2 1 1 1
3 0 1 3 2 2 4 5 4 6 7 6 6 7 6 6 6 6 6 5 5 5 5 4 4 3 3 3 2 2 3 2 1 1 1 2 1 0 0 1 1 1 2 2 1 2 1 1 1
4 4 2 1 3 4 4 6 7 8 8 7 7 7 6 6 6 5 5 5 5 5 5 4 4 3 3 2 2 1 2 1 1 1 1 2 1 0 0 0 0 1 1 1 1 1 2 1 1
2 5 5 3 3 4 6 10 8 8 6 7 8 7 6 7 6 5 5 5 4 5 5 4 4 3 3 3 2 1 1 1 0 1 1 1 1 1 1 1 0 1 1 1 1 1 1 2 2
5 4 2 1 1 4 7 7 6 7 6 6 7 7 6 5 5 5 5 4 4 4 4 4 3 3 3 3 2 2 2 1 1 1 1 1 1 1 1 1 1 1 1 0 0 1 1 1 1
4 3 2 1 1 2 4 5 7 7 6 6 7 6 5 5 4 4 4 4 3 4 4 3 3 3 3 3 3 2 2 2 1 2 2 2 2 1 1 1 1 1 1 1 0 1 1 1 2
3 2 2 1 1 3 4 4 6 8 7 7 7 7 6 5 5 5 4 4 3 3 3 3 3 3 2 2 1 1 1 2 2 2 2 2 2 2 2 2 2 2 1 1 1 1 2 1 2
Wind_Direction
216 219 218 250 254 243 303 62 66 63 63 51 44 62 67 54 52 89 137 111 111 112 115 111 105 101 98 94 90 87 84 81 80 77 75 73 70 68 61 53 44 39 39 34 25 19 13 10 13
243 230 235 242 261 285 74 67 68 70 68 65 63 63 73 70 80 98 111 106 111 114 114 108 105 101 98 94 90 87 84 80 77 74 71 70 69 66 60 51 43 37 34 27 22 15 6 3 5
247 243 249 246 264 326 80 77 80 86 82 69 75 65 61 69 84 102 122 119 112 109 107 108 107 103 99 96 92 88 85 82 77 73 68 68 68 64 59 53 47 37 31 28 23 17 7 360 359
239 249 246 247 269 68 98 100 96 92 80 68 81 80 69 59 85 114 129 120 110 108 109 111 108 105 102 98 93 89 86 83 77 71 64 60 59 57 53 46 41 33 28 28 23 14 6 2 358
250 257 256 257 254 92 95 106 114 96 88 79 83 90 82 77 100 118 120 113 113 113 115 118 114 111 107 102 97 91 86 82 75 68 59 53 51 51 48 40 36 31 26 19 12 2 359 358 355
267 254 267 278 77 96 92 93 100 90 90 87 94 101 95 111 115 119 117 112 114 118 120 123 125 121 117 111 104 97 91 85 78 71 63 53 47 45 42 44 38 29 21 10 2 348 340 340 339
260 276 272 278 56 88 86 87 87 81 81 80 96 102 116 119 121 124 118 112 117 122 128 135 139 135 130 124 118 113 109 104 104 106 115 247 269 259 159 87 42 17 359 345 341 335 323 314 308
262 289 281 273 77 74 75 73 76 82 83 91 87 106 126 131 132 122 120 121 121 123 128 137 141 142 145 142 138 140 145 154 172 193 218 237 250 236 218 185 125 352 325 316 316 315 305 290 282
271 265 306 353 70 82 90 84 66 74 86 76 74 93 120 133 134 132 131 122 114 115 123 128 131 136 150 154 151 166 175 189 202 211 229 240 245 215 196 149 152 212 259 276 279 282 280 276 268
221 272 315 346 44 87 83 74 52 86 90 87 94 105 121 134 139 142 143 136 130 127 121 114 120 133 142 131 143 179 174 176 206 181 195 224 274 342 59 145 191 223 243 256 253 261 269 264 249
225 233 277 328 46 92 102 102 64 68 83 107 123 130 136 142 147 149 136 121 120 110 97 102 109 105 111 119 132 161 155 153 142 39 39 11 9 337 94 162 190 231 241 249 244 253 252 254 242
237 234 222 33 47 73 104 105 86 85 101 126 129 135 142 147 146 142 130 125 122 111 103 100 102 112 99 91 110 157 84 74 76 26 8 41 33 337 15 354 33 341 327 316 291 279 289 296 306
225 209 189 156 164 140 113 83 82 105 117 125 131 141 146 146 143 140 137 136 131 124 123 112 111 109 101 87 21 78 65 29 60 47 349 21 37 348 8 350 16 333 333 329 311 298 306 314 322
219 198 196 203 180 166 165 159 143 120 126 135 141 147 148 147 151 148 144 141 133 132 134 126 112 97 111 117 93 75 84 101 61 46 333 8 37 357 9 3 9 343 333 328 309 300 313 310 314
228 199 198 205 186 177 184 177 158 156 152 149 148 149 147 149 155 148 145 150 141 144 139 129 116 87 74 72 54 60 59 61 60 57 354 12 24 1 33 11 355 337 339 340 337 336 328 324 322
218 217 211 201 182 174 191 188 150 158 161 158 151 148 151 152 163 154 154 153 144 143 133 128 115 95 76 68 46 34 56 52 53 59 24 7 13 22 30 4 343 339 351 348 328 323 334 338 335
213 211 200 189 179 178 194 179 156 159 162 165 158 156 161 164 166 157 150 142 135 132 131 132 120 102 84 76 82 49 57 49 44 51 39 12 3 11 27 357 337 356 5 346 333 352 346 339 329
212 207 196 174 171 176 184 183 165 172 172 167 160 167 171 171 168 155 145 140 135 136 134 125 114 103 99 99 67 62 51 25 55 57 51 23 359 14 9 347 4 5 4 347 334 329 330 315 309
253 205 171 152 163 176 186 173 171 170 168 165 162 165 172 170 159 147 148 145 145 139 130 118 118 114 106 87 62 64 55 1 48 60 54 21 16 18 355 352 358 8 6 336 329 339 337 324 321
226 175 156 142 168 184 170 171 164 165 172 174 169 169 173 154 147 146 148 151 155 142 132 124 122 119 109 102 98 107 81 352 70 54 49 23 31 18 351 360 357 359 342 342 340 347 345 323 326
203 148 164 158 168 177 159 165 154 159 158 157 170 164 152 147 145 146 158 153 147 140 130 127 131 122 117 125 101 74 66 346 31 53 79 36 43 21 351 351 349 334 346 350 326 330 347 319 320
183 154 176 186 179 183 164 126 157 154 153 161 167 154 148 145 140 144 153 152 151 141 134 142 138 131 132 136 122 125 132 246 38 66 127 229 187 167 12 350 342 336 352 347 325 10 337 321 319
196 190 215 209 215 198 152 133 165 156 159 163 163 156 146 142 136 141 146 151 152 144 143 148 139 133 134 137 138 178 124 330 36 35 13 291 189 108 86 350 326 321 336 348 333 341 334 334 327
204 206 233 221 253 217 160 138 115 136 138 145 140 134 137 138 136 137 137 139 137 132 135 142 138 130 132 155 169 175 152 138 6 304 300 302 270 238 9 346 331 331 343 346 339 334 318 323 328
218 140 235 185 179 166 147 108 92 81 82 95 116 121 118 121 123 123 127 130 133 133 137 142 140 145 156 179 194 179 162 191 217 241 238 270 279 246 344 350 356 336 345 340 332 320 315 297 282
187 169 215 202 150 142 138 105 100 91 87 92 94 100 107 110 109 112 118 127 136 141 144 151 155 163 167 186 213 226 155 174 196 226 255 262 262 219 193 329 22 334 342 339 344 333 322 322 316
206 200 208 227 169 133 121 114 111 105 104 105 101 100 100 105 111 115 114 123 136 148 156 164 162 168 176 189 202 209 175 150 213 270 279 288 302 314 8 328 18 342 345 340 357 339 328 341 336
254 268 225 223 138 124 128 126 132 134 129 116 106 104 103 107 114 116 117 123 132 142 152 155 159 170 184 192 201 184 193 176 204 265 278 291 301 315 313 316 313 301 294 313 7 318 306 329 299
218 239 252 261 205 127 115 81 110 126 117 112 111 110 112 109 106 103 108 116 123 128 140 148 165 178 189 202 204 190 181 179 215 243 254 265 264 272 267 263 267 271 283 278 240 258 284 278 278
302 322 304 292 72 110 110 96 92 105 100 98 99 102 103 97 97 102 98 93 96 110 129 146 169 183 191 204 210 194 171 181 216 253 261 264 257 249 259 267 271 271 270 280 292 260 264 256 278